EW3904 Weather Reports


Display with metric or nautical units.
time (UTC)temp
F
wind
direction
speed
MPH
gust
MPH
rain 1hr
in
rain 24hr
in
rain mn
in
humidity
%
barometer
mb
20260905232244 89 232 6.0 10.0 0.00 0.00 0.00 66 1012.9
20260905231243 89 224 7.0 10.0 0.00 0.00 0.00 66 1013.0
20260905225244 91 238 7.0 9.0 0.00 0.00 0.00 63 1013.1
20260905224244 92 222 7.0 9.0 0.00 0.00 0.00 62 1013.3
20260905223244 93 230 7.0 8.0 0.00 0.00 0.00 61 1013.2
20260905222244 92 223 7.0 10.0 0.00 0.00 0.00 61 1013.1
20260905221244 93 262 8.0 10.0 0.00 0.00 0.00 59 1013.0
20260905220243 93 271 9.0 12.0 0.00 0.00 0.00 57 1012.7
20260905215243 95 272 9.0 10.0 0.00 0.00 0.00 55 1012.8
20260905214244 97 223 5.0 5.0 0.00 0.00 0.00 44 1012.7
20260905212243 97 215 3.0 4.0 0.00 0.00 0.00 42 1012.6
20260905211243 96 146 2.0 3.0 0.00 0.00 0.00 43 1012.7
20260905210243 96 160 0.0 4.0 0.00 0.00 0.00 42 1012.8
20260905205243 96 167 3.0 4.0 0.00 0.00 0.00 42 1012.9
20260905203243 97 117 2.0 4.0 0.00 0.00 0.00 43 1013.2
20260905202243 96 193 4.0 4.0 0.00 0.00 0.00 42 1013.2
20260905201243 97 118 5.0 5.0 0.00 0.00 0.00 44 1013.5
20260905200243 97 306 1.0 4.0 0.00 0.00 0.00 42 1013.7
20260905195243 97 226 3.0 4.0 0.00 0.00 0.00 42 1014.0
20260905194242 95 203 2.0 4.0 0.00 0.00 0.00 45 1014.1
20260905193243 96 101 1.0 3.0 0.00 0.00 0.00 46 1014.2
20260905192243 95 234 4.0 5.0 0.00 0.00 0.00 47 1014.4
20260905191243 95 51 1.0 8.0 0.00 0.00 0.00 45 1014.3
20260905190242 97 350 4.0 8.0 0.00 0.00 0.00 45 1014.3
20260905185242 96 63 2.0 6.0 0.00 0.00 0.00 44 1014.5
20260905183242 96 49 5.0 11.0 0.00 0.00 0.00 43 1014.8
20260905182242 95 155 2.0 6.0 0.00 0.00 0.00 44 1014.9
20260905180242 94 78 3.0 6.0 0.00 0.00 0.00 46 1015.1
20260905175242 95 225 0.0 4.0 0.00 0.00 0.00 50 1015.2
20260905174242 95 29 4.0 6.0 0.00 0.00 0.00 48 1015.3
20260905173242 95 105 4.0 8.0 0.00 0.00 0.00 50 1015.4
20260905172242 94 32 3.0 6.0 0.00 0.00 0.00 50 1015.6
20260905171242 94 164 2.0 5.0 0.00 0.00 0.00 50 1015.8
20260905170242 94 143 4.0 6.0 0.00 0.00 0.00 52 1016.0
20260905165241 93 57 8.0 8.0 0.00 0.00 0.00 52 1016.0
20260905164241 93 304 4.0 5.0 0.00 0.00 0.00 54 1016.2
20260905162241 92 22 1.0 7.0 0.00 0.00 0.00 53 1016.5
20260905161241 92 298 1.0 4.0 0.00 0.00 0.00 53 1016.5
20260905160241 92 39 4.0 10.0 0.00 0.00 0.00 54 1016.6
20260905154241 91 71 5.0 10.0 0.00 0.00 0.00 53 1016.6
20260905153241 91 110 1.0 7.0 0.00 0.00 0.00 54 1016.8
20260905152241 91 339 1.0 5.0 0.00 0.00 0.00 57 1016.8
20260905151241 90 51 4.0 4.0 0.00 0.00 0.00 56 1017.0
20260905150240 89 53 2.0 6.0 0.00 0.00 0.00 60 1017.0
20260905145241 89 281 1.0 5.0 0.00 0.00 0.00 62 1016.9
20260905143241 88 46 3.0 4.0 0.00 0.00 0.00 65 1017.0
20260905142240 87 290 3.0 6.0 0.00 0.00 0.00 66 1017.0
20260905140241 87 342 3.0 5.0 0.00 0.00 0.00 69 1017.1
20260905135240 86 309 3.0 4.0 0.00 0.00 0.00 70 1017.2
20260905134241 85 326 2.0 5.0 0.00 0.00 0.00 72 1017.1
20260905133241 84 355 3.0 4.0 0.00 0.00 0.00 74 1017.1
20260905132240 83 12 3.0 3.0 0.00 0.00 0.00 79 1017.0
20260905131240 82 336 1.0 4.0 0.00 0.00 0.00 82 1017.2
20260905130241 81 326 2.0 4.0 0.00 0.00 0.00 82 1017.3
20260905125240 80 345 1.0 3.0 0.00 0.00 0.00 85 1017.3
20260905124240 78 5 0.0 2.0 0.00 0.00 0.00 87 1017.1
20260905123240 77 360 1.0 3.0 0.00 0.00 0.00 88 1017.0
20260905122240 76 319 0.0 2.0 0.00 0.00 0.00 92 1017.0
20260905121240 75 339 0.0 2.0 0.00 0.00 0.00 93 1016.8
20260905120239 74 339 0.0 2.0 0.00 0.00 0.00 94 1016.7
20260905115240 73 339 0.0 1.0 0.00 0.00 0.00 94 1016.8
20260905113239 73 339 0.0 0.0 0.00 0.00 0.00 94 1016.6
20260905111239 72 209 0.0 0.0 0.00 0.00 0.00 94 1016.5
20260905110239 72 209 0.0 0.0 0.00 0.00 0.00 94 1016.4
20260905105239 72 209 0.0 0.0 0.00 0.00 0.00 94 1016.6
20260905104239 73 209 0.0 0.0 0.00 0.00 0.00 94 1016.3
20260905103239 73 209 0.0 0.0 0.00 0.00 0.00 94 1016.2
20260905102239 73 209 0.0 1.0 0.00 0.00 0.00 94 1016.3
20260905100239 73 182 0.0 0.0 0.00 0.00 0.00 94 1016.3
20260905094239 73 65 0.0 0.0 0.00 0.00 0.00 94 1016.3
20260905093239 73 65 0.0 0.0 0.00 0.00 0.00 94 1016.1
20260905092239 73 65 0.0 0.0 0.00 0.00 0.00 94 1016.1
20260905091239 73 65 0.0 0.0 0.00 0.00 0.00 94 1016.3
20260905090238 73 65 0.0 0.0 0.00 0.00 0.00 94 1016.2
20260905084238 73 65 0.0 0.0 0.00 0.00 0.00 93 1016.2
20260905083239 73 65 0.0 0.0 0.00 0.00 0.00 93 1016.1
20260905082238 73 65 0.0 0.0 0.00 0.00 0.00 93 1016.0
20260905081238 73 65 0.0 0.0 0.00 0.00 0.00 93 1016.2
20260905080238 74 65 0.0 0.0 0.00 0.00 0.00 93 1016.1
20260905075238 74 65 0.0 0.0 0.00 0.00 0.00 92 1016.0
20260905074238 74 65 0.0 0.0 0.00 0.00 0.00 92 1016.0
20260905073238 74 72 0.0 0.0 0.00 0.00 0.00 92 1015.8
20260905072238 74 72 0.0 0.0 0.00 0.00 0.00 92 1015.8
20260905070238 76 213 0.0 4.0 0.00 0.00 0.00 91 1015.8
20260905065237 75 227 0.0 2.0 0.00 0.00 0.00 92 1015.7
20260905063237 75 248 0.0 0.0 0.00 0.00 0.00 91 1016.1
20260905062238 75 248 0.0 0.0 0.00 0.00 0.00 89 1016.3
20260905060237 77 238 2.0 2.0 0.00 0.00 0.00 88 1016.5
20260905055237 77 237 1.0 2.0 0.00 0.00 0.00 88 1016.8
20260905053237 76 199 0.0 2.0 0.00 0.00 0.00 88 1016.9
20260905052237 77 209 0.0 2.0 0.00 0.00 0.00 87 1016.9
20260905051237 77 186 0.0 3.0 0.00 0.00 0.00 87 1016.8
20260905050237 77 211 2.0 2.0 0.00 0.00 0.00 86 1016.9
20260905044237 77 185 0.0 2.0 0.00 0.00 0.00 85 1017.0
20260905043236 77 188 0.0 1.0 0.00 0.00 0.00 84 1016.9
20260905041236 78 180 0.0 2.0 0.00 0.00 0.00 82 1017.1
20260905040236 78 210 1.0 4.0 0.00 0.00 0.00 80 1017.0
20260905035236 79 180 0.0 3.0 0.00 0.00 0.00 79 1017.0
20260905034236 79 168 1.0 2.0 0.00 0.00 0.00 78 1017.0
20260905033236 79 198 2.0 3.0 0.00 0.00 0.00 77 1016.9
20260905032236 80 195 1.0 2.0 0.00 0.00 0.00 74 1017.0
20260905031236 79 209 1.0 9.0 0.00 0.00 0.00 76 1017.1
20260905030236 78 184 0.0 0.0 0.00 0.00 0.00 79 1017.0
20260905025235 78 184 0.0 0.0 0.00 0.00 0.00 79 1016.9
20260905024235 78 184 0.0 0.0 0.00 0.00 0.00 79 1017.2
20260905023236 78 184 0.0 0.0 0.00 0.00 0.00 79 1017.4
20260905021236 80 184 0.0 0.0 0.00 0.00 0.00 75 1017.4
20260905015235 80 184 0.0 0.0 0.00 0.00 0.00 73 1017.4
20260905013235 81 184 0.0 0.0 0.00 0.00 0.00 72 1017.5
20260905012235 81 184 0.0 2.0 0.00 0.00 0.00 72 1017.2
20260905010235 82 76 0.0 0.0 0.00 0.00 0.00 70 1017.2
20260905005235 82 76 0.0 0.0 0.00 0.00 0.00 69 1016.6
20260905004235 83 76 0.0 2.0 0.00 0.00 0.00 68 1016.6
20260905003235 83 76 0.0 0.0 0.00 0.00 0.00 66 1016.5
20260905002235 84 76 0.0 0.0 0.00 0.00 0.00 65 1016.7
20260905001235 85 76 0.0 0.0 0.00 0.00 0.00 64 1016.6
20260905000235 87 76 0.0 0.0 0.00 0.00 0.00 60 1016.3
20260904235234 88 76 0.0 1.0 0.00 0.00 0.00 57 1016.3